Weather History for KIWA - October, 2012

Change the Weather History Date:

Sunday, October 14, 2012

  Actual Average Record
Temperature  
Mean Temperature 73 °F -  
Max Temperature 91 °F 86 °F 100 °F (2010)
Min Temperature 55 °F 60 °F 46 °F (2008)
Cooling Degree Days 8    
Growing Degree Days 23 (Base 50)    
Moisture  
Dew Point 37 °F    
Average Humidity 35    
Maximum Humidity 55    
Minimum Humidity 13    
Precipitation  
Precipitation 0.00 in - - ()
Sea Level Pressure  
Sea Level Pressure 30.03 in    
Wind  
Wind Speed 5 mph (ESE)    
Max Wind Speed 8 mph    
Max Gust Speed -    
Visibility 11 miles    
Events      
Averages and records for this station are not official NWS values.
T = Trace of Precipitation, MM = Missing Value Source: NWS Daily Summary

Daily Weather History Graph

Daily Weather History Graph

Search for Another Location

Airport or City:

Trip Planner

Search our weather history database for the weather conditions in past years. The results will help you decide how hot, cold, wet, or windy it might be!

Date:

Astronomy

Oct. 14, 2012 Rise Set
Actual Time 6:30 AM MST 5:53 PM MST
Civil Twilight 6:05 AM MST 6:18 PM MST
Nautical Twilight 5:36 AM MST 6:47 PM MST
Astronomical Twilight 5:08 AM MST 7:16 PM MST
Moon 5:34 AM MST (10/14) 5:16 PM MST (10/14)
Length of Visible Light 12h 12m
Length of Day
11h 22m
Waning Crescent, 1% of the Moon is Illuminated
Oct 14
Waning Crescent
Oct 15
New
Oct 21
First Quarter
Oct 29
Full
Nov 6
Last Quarter

Hourly Weather History & Observations

Time (MST) Temp. Dew Point Humidity Pressure Visibility Wind Dir Wind Speed Gust Speed Precip Events Conditions
12:15 AM 60.8 °F 37.4 °F 42% 30.06 in 10.0 mi ESE 5.8 mph - N/A   Clear
12:35 AM 60.8 °F 39.2 °F 45% 30.07 in 10.0 mi ESE 5.8 mph - N/A   Clear
12:55 AM 60.8 °F 39.2 °F 45% 30.07 in 10.0 mi ESE 4.6 mph - N/A   Clear
1:15 AM 60.8 °F 37.4 °F 42% 30.07 in 10.0 mi ESE 3.5 mph - N/A   Clear
1:35 AM 59.0 °F 37.4 °F 45% 30.07 in 10.0 mi East 3.5 mph - N/A   Clear
1:55 AM 57.2 °F 37.4 °F 48% 30.07 in 10.0 mi ESE 5.8 mph - N/A   Clear
2:15 AM 57.2 °F 41.0 °F 55% 30.07 in 10.0 mi SSE 4.6 mph - N/A   Clear
2:35 AM 57.2 °F 41.0 °F 55% 30.07 in 10.0 mi SE 3.5 mph - N/A   Clear
2:55 AM 57.2 °F 41.0 °F 55% 30.07 in 10.0 mi SE 5.8 mph - N/A   Clear
3:15 AM 57.2 °F 39.2 °F 51% 30.06 in 10.0 mi ESE 3.5 mph - N/A   Clear
3:35 AM 57.2 °F 41.0 °F 55% 30.06 in 10.0 mi SSE 6.9 mph - N/A   Clear
3:55 AM 57.2 °F 41.0 °F 55% 30.06 in 10.0 mi SE 5.8 mph - N/A   Clear
4:15 AM 55.4 °F 39.2 °F 54% 30.06 in 10.0 mi SSE 8.1 mph - N/A   Clear
4:35 AM 55.4 °F 39.2 °F 54% 30.06 in 10.0 mi SE 6.9 mph - N/A   Clear
4:55 AM 55.4 °F 39.2 °F 54% 30.07 in 10.0 mi SE 5.8 mph - N/A   Clear
5:15 AM 55.4 °F 37.4 °F 51% 30.07 in 10.0 mi SE 6.9 mph - N/A   Clear
5:47 AM 55.4 °F 39.2 °F 54% 30.08 in 20.0 mi East 4.6 mph - N/A   Clear
6:47 AM 55.4 °F 39.2 °F 54% 30.09 in 45.0 mi East 4.6 mph - N/A   Partly Cloudy
7:50 AM 60.8 °F 39.2 °F 45% 30.09 in 45.0 mi Calm Calm - N/A   Partly Cloudy
8:47 AM 66.2 °F 39.2 °F 37% 30.10 in 45.0 mi Variable 5.8 mph - N/A   Partly Cloudy
9:47 AM 73.4 °F 41.0 °F 31% 30.11 in 45.0 mi West 5.8 mph - N/A   Partly Cloudy
10:47 AM 78.8 °F 41.0 °F 26% 30.09 in 35.0 mi WNW 5.8 mph - N/A   Partly Cloudy
11:47 AM 80.6 °F 41.0 °F 24% 30.07 in 35.0 mi NNW 5.8 mph - N/A   Clear
12:47 PM 86.0 °F 37.4 °F 18% 30.03 in 35.0 mi Calm Calm - N/A   Clear
1:47 PM 87.8 °F 33.8 °F 15% 30.00 in 35.0 mi Calm Calm - N/A   Clear
2:47 PM 91.4 °F 33.8 °F 13% 29.97 in 35.0 mi NNW 6.9 mph - N/A   Clear
3:47 PM 89.6 °F 32.0 °F 13% 29.96 in 35.0 mi West 5.8 mph - N/A   Clear
4:47 PM 89.6 °F 32.0 °F 13% 29.95 in 35.0 mi West 5.8 mph - N/A   Clear
5:47 PM 86.0 °F 33.8 °F 15% 29.94 in 35.0 mi West 3.5 mph - N/A   Clear
6:47 PM 84.2 °F 35.6 °F 18% 29.95 in 20.0 mi NW 3.5 mph - N/A   Clear
7:47 PM 75.2 °F 33.8 °F 22% 29.97 in 20.0 mi Calm Calm - N/A   Clear
7:55 PM 73.4 °F 33.8 °F 23% 29.97 in 10.0 mi NNE 5.8 mph - N/A   Clear
8:15 PM 73.4 °F 33.8 °F 23% 29.97 in 10.0 mi ENE 4.6 mph - N/A   Clear
8:35 PM 73.4 °F 33.8 °F 23% 29.97 in 10.0 mi NE 5.8 mph - N/A   Clear
8:47 PM 73.4 °F 35.6 °F 25% 29.97 in 20.0 mi NNE 4.6 mph - N/A   Clear
8:55 PM 71.6 °F 33.8 °F 25% 29.98 in 10.0 mi NE 6.9 mph - N/A   Clear
9:15 PM 73.4 °F 33.8 °F 23% 29.98 in 10.0 mi North 8.1 mph - N/A   Clear
9:35 PM 75.2 °F 33.8 °F 22% 29.98 in 10.0 mi East 3.5 mph - N/A   Clear
9:55 PM 71.6 °F 37.4 °F 29% 29.99 in 10.0 mi ESE 4.6 mph - N/A   Clear
10:15 PM 69.8 °F 35.6 °F 28% 29.99 in 10.0 mi Calm Calm - N/A   Clear
10:35 PM 68.0 °F 35.6 °F 30% 29.99 in 10.0 mi ENE 3.5 mph - N/A   Clear
10:55 PM 68.0 °F 32.0 °F 26% 29.98 in 10.0 mi East 6.9 mph - N/A   Clear
11:15 PM 71.6 °F 32.0 °F 23% 29.98 in 10.0 mi ESE 4.6 mph - N/A   Clear
11:35 PM 66.2 °F 32.0 °F 28% 29.97 in 10.0 mi ESE 5.8 mph - N/A   Clear
11:55 PM 64.4 °F 33.8 °F 32% 29.97 in 10.0 mi SE 6.9 mph - N/A   Clear